FW6908 Weather Reports


time (UTC)temp
F
wind
direction
speed
knots
gust
knots
rain 1hr
in
rain 24hr
in
rain mn
in
humidity
%
barometer
mb
20260510224019 64 64 0.9 1.7 0.00 0.00 0.00 71 1015.6
20260510223517 64 64 0.0 0.0 0.00 0.00 0.00 71 1015.7
20260510223017 64 63 0.0 1.7 0.00 0.00 0.00 71 1015.7
20260510222519 65 63 0.0 1.7 0.00 0.00 0.00 70 1015.7
20260510222019 65 61 0.0 1.7 0.00 0.00 0.00 69 1015.7
20260510221517 65 59 0.0 2.6 0.00 0.00 0.00 70 1015.7
20260510221016 65 58 0.9 3.5 0.00 0.00 0.00 70 1015.8
20260510220515 64 58 0.9 5.2 0.00 0.00 0.00 71 1015.9
20260510220014 64 61 2.6 5.2 0.00 0.00 0.00 71 1015.9
20260510215513 64 28 2.6 4.3 0.00 0.00 0.00 71 1016.0
20260510215016 64 24 2.6 3.5 0.00 0.00 0.00 70 1016.0
20260510214511 65 328 0.0 2.6 0.00 0.00 0.00 69 1016.0
20260510214010 66 325 0.0 1.7 0.00 0.00 0.00 68 1016.1
20260510213509 67 328 0.0 1.7 0.00 0.00 0.00 67 1016.1
20260510213020 67 329 0.0 0.9 0.00 0.00 0.00 67 1016.1
20260510212510 67 329 0.0 1.7 0.00 0.00 0.00 66 1016.1
20260510212010 67 330 0.9 1.7 0.00 0.00 0.00 66 1016.0
20260510211517 67 328 0.0 0.9 0.00 0.00 0.00 66 1016.1
20260510211008 67 329 0.0 0.0 0.00 0.00 0.00 66 1016.1
20260510210505 67 321 0.0 0.0 0.00 0.00 0.00 66 1016.1
20260510210013 67 320 0.0 0.0 0.00 0.00 0.00 66 1016.0
20260510205507 67 321 0.0 1.7 0.00 0.00 0.00 65 1015.9
20260510205004 67 325 0.0 1.7 0.00 0.00 0.00 65 1016.0
20260510204504 67 306 0.9 2.6 0.00 0.00 0.00 65 1016.0
20260510204003 68 210 0.0 3.5 0.00 0.00 0.00 64 1016.0
20260510203504 67 211 1.7 3.5 0.00 0.00 0.00 64 1016.1
20260510203003 67 223 0.0 0.0 0.00 0.00 0.00 63 1016.1
20260510202503 68 227 0.0 0.0 0.00 0.00 0.00 63 1016.1
20260510202003 68 227 0.0 2.6 0.00 0.00 0.00 63 1016.1
20260510201502 68 228 0.9 3.5 0.00 0.00 0.00 62 1016.2
20260510201002 68 233 1.7 3.5 0.00 0.00 0.00 62 1016.2
20260510200502 68 245 1.7 3.5 0.00 0.00 0.00 62 1016.3
20260510200002 68 244 1.7 3.5 0.00 0.00 0.00 62 1016.3
20260510195501 68 248 1.7 3.5 0.00 0.00 0.00 62 1016.3
20260510195001 68 252 1.7 2.6 0.00 0.00 0.00 62 1016.3
20260510194501 68 253 0.9 2.6 0.00 0.00 0.00 62 1016.3
20260510194005 69 252 0.9 2.6 0.00 0.00 0.00 62 1016.3
20260510193503 68 254 0.9 2.6 0.00 0.00 0.00 62 1016.3
20260510193005 68 254 0.9 2.6 0.00 0.00 0.00 62 1016.3
20260510192100 68 252 1.7 3.5 0.00 0.00 0.00 62 1016.3
20260510191600 68 251 1.7 3.5 0.00 0.00 0.00 62 1016.2
20260510191103 68 259 1.7 3.5 0.00 0.00 0.00 62 1016.3
20260510190559 68 261 1.7 3.5 0.00 0.00 0.00 62 1016.2
20260510190100 68 249 2.6 3.5 0.00 0.00 0.00 62 1016.2
20260510185606 68 247 1.7 3.5 0.00 0.00 0.00 62 1016.2
20260510185100 68 257 2.6 4.3 0.00 0.00 0.00 62 1016.2
20260510184600 68 247 2.6 4.3 0.00 0.00 0.00 63 1016.1
20260510184059 68 249 1.7 3.5 0.00 0.00 0.00 63 1016.1
20260510183600 68 258 1.7 3.5 0.00 0.00 0.00 63 1016.2
20260510183104 68 251 2.6 6.1 0.00 0.00 0.00 63 1016.2
20260510182602 68 232 2.6 6.1 0.00 0.00 0.00 64 1016.2
20260510182058 68 238 3.5 6.1 0.00 0.00 0.00 64 1016.1
20260510181631 69 256 2.6 6.1 0.00 0.00 0.00 63 1016.1
20260510181058 69 263 2.6 6.1 0.00 0.00 0.00 63 1016.1
20260510180558 69 245 3.5 6.1 0.00 0.00 0.00 63 1016.1
20260510180109 69 257 2.6 6.1 0.00 0.00 0.00 62 1015.9
20260510175600 69 269 2.6 4.3 0.00 0.00 0.00 62 1015.9
20260510175057 69 252 3.5 4.3 0.00 0.00 0.00 62 1016.0
20260510174602 69 265 2.6 6.1 0.00 0.00 0.00 62 1016.0
20260510174057 70 245 2.6 6.1 0.00 0.00 0.00 61 1015.9
20260510173559 70 241 1.7 4.3 0.00 0.00 0.00 61 1015.8
20260510173056 70 273 1.7 5.2 0.00 0.00 0.00 61 1016.0
20260510172555 70 281 1.7 5.2 0.00 0.00 0.00 61 1015.9
20260510172054 70 281 1.7 4.3 0.00 0.00 0.00 61 1015.8
20260510171554 70 277 1.7 3.5 0.00 0.00 0.00 60 1015.8
20260510171056 70 286 1.7 3.5 0.00 0.00 0.00 61 1015.7
20260510170554 70 266 2.6 5.2 0.00 0.00 0.00 60 1015.8
20260510170054 70 264 2.6 5.2 0.00 0.00 0.00 60 1015.8
20260510165556 70 281 1.7 3.5 0.00 0.00 0.00 60 1015.8
20260510165055 70 300 1.7 3.5 0.00 0.00 0.00 60 1015.9
20260510164555 70 285 1.7 6.1 0.00 0.00 0.00 60 1015.8
20260510164054 70 257 3.5 6.1 0.00 0.00 0.00 60 1015.8
20260510163554 70 265 1.7 7.0 0.00 0.00 0.00 61 1015.7
20260510163059 70 274 4.3 7.0 0.00 0.00 0.00 61 1015.7
20260510162553 70 261 4.3 7.0 0.00 0.00 0.00 61 1015.7
20260510162052 70 275 4.3 7.0 0.00 0.00 0.00 61 1015.9
20260510161553 70 266 3.5 6.1 0.00 0.00 0.00 61 1015.9
20260510161055 70 262 2.6 6.1 0.00 0.00 0.00 62 1016.1
20260510160553 70 297 1.7 6.1 0.00 0.00 0.00 62 1016.1
20260510160058 70 291 2.6 7.8 0.00 0.00 0.00 62 1016.1
20260510155553 70 275 5.2 8.7 0.00 0.00 0.00 62 1016.2
20260510155051 70 246 6.1 9.6 0.00 0.00 0.00 62 1016.2
20260510154555 70 264 7.8 9.6 0.00 0.00 0.00 62 1016.3
20260510154055 71 267 6.1 9.6 0.00 0.00 0.00 62 1016.4
20260510153550 70 238 7.0 9.6 0.00 0.00 0.00 62 1016.5
20260510153054 71 273 6.1 8.7 0.00 0.00 0.00 61 1016.4
20260510152551 71 259 5.2 7.8 0.00 0.00 0.00 61 1016.4
20260510152049 71 207 4.3 8.7 0.00 0.00 0.00 61 1016.3
20260510151550 71 226 6.1 8.7 0.00 0.00 0.00 60 1016.3
20260510151050 71 200 4.3 7.0 0.00 0.00 0.00 61 1016.3
20260510150550 71 249 3.5 7.8 0.00 0.00 0.00 62 1016.4
20260510150050 71 247 3.5 7.8 0.00 0.00 0.00 61 1016.3
20260510145554 70 241 6.1 9.6 0.00 0.00 0.00 61 1016.5
20260510145049 70 261 4.3 9.6 0.00 0.00 0.00 62 1016.4
20260510144549 70 247 6.1 12.2 0.00 0.00 0.00 61 1016.6
20260510144049 71 269 7.8 11.3 0.00 0.00 0.00 61 1016.7
20260510143548 71 232 7.0 13.9 0.00 0.00 0.00 61 1016.7
20260510143053 71 262 8.7 14.8 0.00 0.00 0.00 61 1016.8
20260510142549 71 234 11.3 14.8 0.00 0.00 0.00 61 1016.8
20260510142048 71 277 6.1 12.2 0.00 0.00 0.00 62 1016.6
20260510141551 71 213 7.8 12.2 0.00 0.00 0.00 62 1016.4
20260510141047 71 238 8.7 12.2 0.00 0.00 0.00 62 1016.4
20260510140647 71 263 7.8 11.3 0.00 0.00 0.00 63 1016.4
20260510140047 71 268 8.7 11.3 0.00 0.00 0.00 62 1016.2
20260510135546 72 232 5.2 9.6 0.00 0.00 0.00 61 1016.2
20260510135046 72 217 7.0 11.3 0.00 0.00 0.00 62 1016.3
20260510134547 72 275 7.8 11.3 0.00 0.00 0.00 61 1016.3
20260510134045 72 290 6.1 10.4 0.00 0.00 0.00 61 1016.0
20260510133549 72 248 7.0 8.7 0.00 0.00 0.00 60 1016.1
20260510133044 72 252 4.3 9.6 0.00 0.00 0.00 62 1016.3
20260510132544 72 278 5.2 9.6 0.00 0.00 0.00 62 1016.4
20260510132043 72 265 7.0 9.6 0.00 0.00 0.00 62 1016.4
20260510131544 72 255 7.0 9.6 0.00 0.00 0.00 62 1016.5
20260510131044 72 275 7.0 9.6 0.00 0.00 0.00 62 1016.4
20260510130543 72 188 4.3 8.7 0.00 0.00 0.00 62 1016.0
20260510130043 72 250 3.5 11.3 0.00 0.00 0.00 62 1016.8
20260510125544 72 294 7.8 11.3 0.00 0.00 0.00 62 1017.1
20260510125043 72 281 7.0 12.2 0.00 0.00 0.00 62 1017.1
20260510124545 73 271 7.8 12.2 0.00 0.00 0.00 62 1017.1
20260510124043 73 271 7.0 13.9 0.00 0.00 0.00 62 1017.2
20260510123543 73 271 7.0 13.9 0.00 0.00 0.00 62 1017.3
20260510123043 74 232 9.6 13.0 0.00 0.00 0.00 61 1017.4
20260510122542 74 200 7.0 12.2 0.00 0.00 0.00 59 1017.5
20260510122042 74 225 8.7 12.2 0.00 0.00 0.00 58 1017.5
20260510121541 75 207 6.1 11.3 0.00 0.00 0.00 58 1017.6
20260510121042 75 233 7.0 11.3 0.00 0.00 0.00 57 1017.6
20260510120540 75 227 7.0 13.9 0.00 0.00 0.00 57 1017.6
20260510120041 75 245 8.7 13.9 0.00 0.00 0.00 57 1017.7
20260510115540 75 245 9.6 13.9 0.00 0.00 0.00 57 1017.6
20260510115041 76 250 7.0 13.9 0.00 0.00 0.00 56 1017.6
20260510114541 76 251 10.4 13.0 0.00 0.00 0.00 55 1017.6
20260510114039 76 274 8.7 13.0 0.00 0.00 0.00 56 1017.6
20260510113538 75 227 7.8 13.0 0.00 0.00 0.00 57 1017.5
20260510113040 75 198 7.8 11.3 0.00 0.00 0.00 57 1017.6
20260510112538 75 288 6.1 12.2 0.00 0.00 0.00 57 1017.6
20260510112040 75 246 6.1 12.2 0.00 0.00 0.00 57 1017.5
20260510111537 75 286 6.1 11.3 0.00 0.00 0.00 57 1017.5
20260510111036 75 263 6.1 9.6 0.00 0.00 0.00 57 1017.6
20260510110538 76 264 7.8 13.0 0.00 0.00 0.00 57 1017.5
20260510110037 75 288 7.8 13.0 0.00 0.00 0.00 58 1017.6
20260510105536 75 255 9.6 12.2 0.00 0.00 0.00 58 1017.5
20260510105036 74 233 8.7 12.2 0.00 0.00 0.00 59 1017.6
20260510104539 75 274 8.7 12.2 0.00 0.00 0.00 57 1017.6
20260510104035 76 231 5.2 8.7 0.00 0.00 0.00 56 1017.7
20260510103534 75 268 6.1 8.7 0.00 0.00 0.00 57 1017.7
20260510103034 76 240 5.2 7.8 0.00 0.00 0.00 56 1017.7
20260510102533 75 199 4.3 9.6 0.00 0.00 0.00 56 1017.8
20260510102033 75 261 4.3 9.6 0.00 0.00 0.00 56 1017.7
20260510101536 76 250 4.3 11.3 0.00 0.00 0.00 55 1017.8
20260510101031 75 207 5.2 11.3 0.00 0.00 0.00 56 1017.9
20260510100531 75 236 7.0 10.4 0.00 0.00 0.00 56 1017.9
20260510100038 75 257 7.0 10.4 0.00 0.00 0.00 56 1017.9
20260510095531 76 229 6.1 10.4 0.00 0.00 0.00 55 1018.0
20260510095029 76 260 5.2 9.6 0.00 0.00 0.00 56 1018.0
20260510094531 74 224 8.7 11.3 0.00 0.00 0.00 57 1018.2
20260510094028 75 249 7.8 11.3 0.00 0.00 0.00 57 1018.1
20260510093528 75 256 4.3 10.4 0.00 0.00 0.00 57 1018.1
20260510093039 75 244 7.8 10.4 0.00 0.00 0.00 57 1018.1
20260510092527 75 200 5.2 8.7 0.00 0.00 0.00 57 1018.0
20260510092029 75 198 5.2 9.6 0.00 0.00 0.00 57 1018.1
20260510091526 75 259 7.0 10.4 0.00 0.00 0.00 57 1018.0
20260510091025 75 183 6.1 9.6 0.00 0.00 0.00 56 1018.0
20260510090524 74 233 7.8 9.6 0.00 0.00 0.00 57 1018.1
20260510090024 74 208 6.1 8.7 0.00 0.00 0.00 56 1018.1
20260510085523 75 217 4.3 8.7 0.00 0.00 0.00 55 1018.1
20260510085020 75 245 4.3 8.7 0.00 0.00 0.00 56 1018.2
20260510084528 74 219 4.3 7.8 0.00 0.00 0.00 56 1018.1
20260510084018 74 225 3.5 7.8 0.00 0.00 0.00 57 1018.1
20260510083517 74 197 3.5 8.7 0.00 0.00 0.00 58 1018.1
20260510083016 73 258 4.3 12.2 0.00 0.00 0.00 58 1018.2
20260510082514 73 232 7.0 12.2 0.00 0.00 0.00 58 1018.2
20260510082013 73 202 4.3 10.4 0.00 0.00 0.00 58 1018.2
20260510081522 73 244 7.0 10.4 0.00 0.00 0.00 57 1018.2
20260510081010 73 213 5.2 8.7 0.00 0.00 0.00 58 1018.2
20260510080508 73 286 3.5 7.8 0.00 0.00 0.00 59 1018.0
20260510080017 73 257 3.5 7.8 0.00 0.00 0.00 58 1018.0
20260510075506 73 207 3.5 7.8 0.00 0.00 0.00 59 1017.9
20260510075006 72 256 4.3 7.0 0.00 0.00 0.00 60 1017.8
20260510074504 72 210 4.3 7.0 0.00 0.00 0.00 60 1017.7
20260510074003 71 242 1.7 7.0 0.00 0.00 0.00 62 1017.6
20260510073503 72 267 4.3 7.0 0.00 0.00 0.00 62 1017.6
20260510073102 72 184 2.6 6.1 0.00 0.00 0.00 62 1017.5
20260510072558 71 164 3.5 7.8 0.00 0.00 0.00 64 1017.6
20260510072057 70 273 3.5 7.8 0.00 0.00 0.00 66 1017.6
20260510071559 70 252 4.3 7.0 0.00 0.00 0.00 66 1017.6
20260510071054 70 266 4.3 6.1 0.00 0.00 0.00 65 1017.6
20260510070553 70 262 2.6 6.1 0.00 0.00 0.00 65 1017.5
20260510070051 70 256 2.6 6.1 0.00 0.00 0.00 65 1017.5
20260510065550 70 241 1.7 5.2 0.00 0.00 0.00 65 1017.5
20260510065049 70 186 0.9 6.1 0.00 0.00 0.00 65 1017.5
20260510064547 69 185 2.6 6.1 0.00 0.00 0.00 66 1017.4
20260510064046 69 181 2.6 6.1 0.00 0.00 0.00 67 1017.5
20260510063545 69 246 3.5 7.0 0.00 0.00 0.00 67 1017.5
20260510063045 68 234 4.3 7.0 0.00 0.00 0.00 67 1017.4
20260510062541 68 240 2.6 7.0 0.00 0.00 0.00 68 1017.4
20260510062040 68 215 2.6 6.1 0.00 0.00 0.00 69 1017.5
20260510061547 67 222 3.5 6.1 0.00 0.00 0.00 69 1017.4
20260510061038 67 209 2.6 5.2 0.00 0.00 0.00 69 1017.5
20260510060539 67 244 3.5 4.3 0.00 0.00 0.00 70 1017.5
20260510060036 67 204 2.6 4.3 0.00 0.00 0.00 70 1017.6
20260510055534 67 203 2.6 4.3 0.00 0.00 0.00 70 1017.5
20260510055033 67 196 1.7 3.5 0.00 0.00 0.00 70 1017.4
20260510054532 66 253 0.9 2.6 0.00 0.00 0.00 72 1017.3
20260510054031 66 252 0.9 3.5 0.00 0.00 0.00 71 1017.3
20260510053528 66 252 1.7 2.6 0.00 0.00 0.00 71 1017.2
20260510053027 65 252 0.0 2.6 0.00 0.00 0.00 72 1017.2
20260510052530 65 261 0.9 2.6 0.00 0.00 0.00 72 1017.2
20260510052024 65 264 0.0 2.6 0.00 0.00 0.00 72 1017.0
20260510051523 65 290 0.9 2.6 0.00 0.00 0.00 71 1017.0
20260510051021 65 294 0.0 1.7 0.00 0.00 0.00 71 1016.9
20260510050521 65 59 0.0 1.7 0.00 0.00 0.00 71 1016.8
20260510050020 65 62 0.0 0.0 0.00 0.00 0.00 71 1016.7
20260510045519 64 61 0.0 0.0 0.00 0.00 0.00 72 1016.8
20260510045018 63 50 0.0 0.0 0.00 0.00 0.00 72 1017.0
20260510044518 63 49 0.0 0.9 0.00 0.00 0.00 73 1016.9
20260510044016 62 49 0.0 0.9 0.00 0.00 0.00 74 1016.9
20260510043516 62 47 0.0 2.6 0.00 0.00 0.00 74 1017.1
20260510043020 61 44 0.0 3.5 0.00 0.00 0.00 76 1016.9
20260510042514 60 15 1.7 3.5 0.00 0.00 0.00 76 1016.9
20260510042012 60 45 1.7 3.5 0.00 0.00 0.00 76 1016.9
20260510041511 60 31 1.7 4.3 0.00 0.00 0.00 76 1016.8
20260510041010 60 42 2.6 4.3 0.00 0.00 0.00 76 1016.7
20260510040509 59 47 2.6 6.1 0.00 0.00 0.00 78 1016.6
20260510040008 59 55 3.5 6.1 0.00 0.00 0.00 78 1016.5
20260510035506 59 11 2.6 5.2 0.00 0.00 0.00 78 1016.5
20260510035005 58 46 2.6 5.2 0.00 0.00 0.00 78 1016.5
20260510034504 58 19 2.6 5.2 0.00 0.00 0.00 78 1016.4
20260510034003 58 24 2.6 5.2 0.00 0.00 0.00 78 1016.3
20260510033501 59 19 2.6 3.5 0.00 0.00 0.00 77 1016.3
20260510033001 59 43 0.9 2.6 0.00 0.00 0.00 77 1016.3
20260510032601 59 52 0.9 1.7 0.00 0.00 0.00 76 1016.2
20260510032104 59 58 0.9 2.6 0.00 0.00 0.00 76 1016.2
20260510031601 59 59 0.9 2.6 0.00 0.00 0.00 76 1016.3
20260510031059 59 56 0.0 2.6 0.00 0.00 0.00 76 1016.3
20260510030558 59 42 0.9 3.5 0.00 0.00 0.00 76 1016.3
20260510030058 59 38 1.7 3.5 0.00 0.00 0.00 75 1016.4
20260510025558 60 57 0.9 2.6 0.00 0.00 0.00 76 1016.2
20260510025058 59 57 0.0 1.7 0.00 0.00 0.00 75 1016.2
20260510024602 60 56 0.0 2.6 0.00 0.00 0.00 76 1016.1
20260510024057 59 55 0.9 2.6 0.00 0.00 0.00 76 1016.2
20260510023557 59 48 1.7 4.3 0.00 0.00 0.00 76 1016.1
20260510023057 59 63 1.7 5.2 0.00 0.00 0.00 77 1016.0
20260510022556 59 59 3.5 7.0 0.00 0.00 0.00 77 1016.1
20260510022056 59 41 4.3 7.0 0.00 0.00 0.00 77 1016.2
20260510021556 59 20 1.7 3.5 0.00 0.00 0.00 77 1016.2
20260510021057 58 38 1.7 4.3 0.00 0.00 0.00 77 1016.2
20260510020555 58 53 2.6 4.3 0.00 0.00 0.00 77 1016.0
20260510020054 59 42 1.7 3.5 0.00 0.00 0.00 76 1016.0
20260510015554 59 57 1.7 4.3 0.00 0.00 0.00 76 1016.0
20260510015052 59 57 2.6 4.3 0.00 0.00 0.00 76 1016.0
20260510014552 59 41 2.6 3.5 0.00 0.00 0.00 75 1016.1
20260510014052 60 44 0.9 4.3 0.00 0.00 0.00 74 1016.1
20260510013553 60 50 2.6 4.3 0.00 0.00 0.00 74 1016.0
20260510013054 60 30 2.6 4.3 0.00 0.00 0.00 73 1016.0
20260510012551 59 63 2.6 5.2 0.00 0.00 0.00 75 1016.0
20260510012050 59 32 2.6 5.2 0.00 0.00 0.00 75 1016.0
20260510011555 59 22 3.5 4.3 0.00 0.00 0.00 75 1016.1
20260510011050 59 38 2.6 4.3 0.00 0.00 0.00 75 1016.1
20260510010551 59 21 2.6 5.2 0.00 0.00 0.00 74 1016.0
20260510010050 59 13 2.6 5.2 0.00 0.00 0.00 74 1016.0
20260510005548 59 48 3.5 4.3 0.00 0.00 0.00 74 1015.8
20260510005047 60 26 2.6 5.2 0.00 0.00 0.00 73 1015.8
20260510004550 60 30 4.3 5.2 0.00 0.00 0.00 73 1015.8
20260510004046 60 26 2.6 4.3 0.00 0.00 0.00 73 1015.8
20260510003545 60 46 1.7 3.5 0.00 0.00 0.00 74 1015.7
20260510003103 60 45 1.7 3.5 0.00 0.00 0.00 74 1015.7
20260510002543 60 46 1.7 2.6 0.00 0.00 0.00 73 1015.8
20260510002043 60 50 1.7 3.5 0.00 0.00 0.00 74 1015.9
20260510001543 60 44 1.7 3.5 0.00 0.00 0.00 73 1015.8
20260510001042 60 42 1.7 3.5 0.00 0.00 0.00 73 1015.9
20260510000542 61 43 0.9 3.5 0.00 0.00 0.00 72 1015.9
20260510000046 61 44 1.7 4.3 0.00 0.00 0.00 72 1016.0
20260509235541 61 42 1.7 6.1 0.00 0.00 0.00 72 1016.0
20260509235041 60 51 1.7 6.1 0.00 0.00 0.00 73 1015.9
20260509234558 60 22 3.5 5.2 0.00 0.00 0.00 73 1016.0
20260509234040 60 23 3.5 4.3 0.00 0.00 0.00 73 1016.1
20260509233538 60 37 1.7 4.3 0.00 0.00 0.00 73 1016.1
20260509233041 61 21 1.7 3.5 0.00 0.00 0.00 72 1016.1
20260509232536 61 14 1.7 3.5 0.00 0.00 0.00 71 1016.1
20260509232036 62 44 0.9 4.3 0.00 0.00 0.00 71 1016.1
20260509231547 62 44 2.6 4.3 0.00 0.00 0.00 70 1016.2
20260509231034 62 40 2.6 7.0 0.00 0.00 0.00 70 1016.1
20260509230534 61 57 3.5 7.0 0.00 0.00 0.00 70 1016.2
20260509230036 62 350 3.5 6.1 0.00 0.00 0.00 70 1016.3
20260509225534 62 13 4.3 6.1 0.00 0.00 0.00 69 1016.2
20260509225033 62 59 0.0 3.5 0.00 0.00 0.00 69 1016.3
20260509224535 63 19 2.6 4.3 0.00 0.00 0.00 68 1016.3